EW5967 Weather Reports


Display with metric or nautical units.
time (UTC)temp
F
wind
direction
speed
MPH
gust
MPH
rain 1hr
in
rain 24hr
in
rain mn
in
humidity
%
barometer
mb
20260503232025 80 199 8.0 20.0 0.00 0.00 0.00 14 1001.2
20260503231525 81 171 8.0 15.0 0.00 0.00 0.00 14 1001.1
20260503231025 81 205 5.0 15.0 0.00 0.00 0.00 13 1001.1
20260503230525 81 177 5.0 11.0 0.00 0.00 0.00 13 1001.2
20260503230024 81 225 1.0 9.0 0.00 0.00 0.00 13 1001.2
20260503225525 81 185 3.0 10.0 0.00 0.00 0.00 13 1001.3
20260503225023 81 236 3.0 14.0 0.00 0.00 0.00 13 1001.5
20260503224522 81 259 5.0 16.0 0.00 0.00 0.00 13 1001.3
20260503224022 81 207 4.0 17.0 0.00 0.00 0.00 13 1001.5
20260503223521 82 177 3.0 11.0 0.00 0.00 0.00 14 1001.6
20260503223023 82 195 4.0 11.0 0.00 0.00 0.00 14 1001.7
20260503222519 81 221 3.0 12.0 0.00 0.00 0.00 15 1001.8
20260503222019 81 231 4.0 12.0 0.00 0.00 0.00 15 1002.0
20260503221518 81 224 4.0 7.0 0.00 0.00 0.00 15 1002.1
20260503221017 80 220 3.0 10.0 0.00 0.00 0.00 16 1002.3
20260503220521 81 267 4.0 11.0 0.00 0.00 0.00 15 1002.1
20260503220016 81 238 6.0 14.0 0.00 0.00 0.00 14 1002.3
20260503215515 82 195 6.0 14.0 0.00 0.00 0.00 14 1002.3
20260503215014 81 194 4.0 15.0 0.00 0.00 0.00 14 1002.3
20260503214515 81 176 8.0 15.0 0.00 0.00 0.00 14 1002.5
20260503214016 81 173 3.0 8.0 0.00 0.00 0.00 14 1002.6
20260503213513 81 163 2.0 9.0 0.00 0.00 0.00 14 1002.6
20260503213012 81 136 4.0 16.0 0.00 0.00 0.00 14 1002.7
20260503212512 81 217 5.0 16.0 0.00 0.00 0.00 14 1002.9
20260503212011 81 93 4.0 11.0 0.00 0.00 0.00 13 1003.0
20260503211509 82 105 3.0 11.0 0.00 0.00 0.00 13 1003.0
20260503211010 81 73 3.0 11.0 0.00 0.00 0.00 13 1003.0
20260503210514 81 100 2.0 13.0 0.00 0.00 0.00 13 1003.2
20260503210008 82 136 6.0 13.0 0.00 0.00 0.00 13 1003.3
20260503205507 82 94 3.0 17.0 0.00 0.00 0.00 12 1003.3
20260503205005 82 13 6.0 17.0 0.00 0.00 0.00 12 1003.5
20260503204611 82 98 4.0 9.0 0.00 0.00 0.00 13 1003.5
20260503204004 82 63 4.0 9.0 0.00 0.00 0.00 12 1003.7
20260503203505 82 96 3.0 10.0 0.00 0.00 0.00 12 1003.8
20260503203001 82 114 4.0 10.0 0.00 0.00 0.00 12 1004.0
20260503202501 82 186 5.0 10.0 0.00 0.00 0.00 12 1004.2
20260503202100 82 182 5.0 10.0 0.00 0.00 0.00 12 1004.2
20260503201605 82 165 3.0 9.0 0.00 0.00 0.00 12 1004.4
20260503201057 82 173 5.0 9.0 0.00 0.00 0.00 12 1004.5
20260503200556 82 182 4.0 8.0 0.00 0.00 0.00 12 1004.7
20260503200100 81 177 3.0 12.0 0.00 0.00 0.00 12 1004.8
20260503195553 81 136 4.0 12.0 0.00 0.00 0.00 12 1004.9
20260503195052 81 197 1.0 3.0 0.00 0.00 0.00 12 1005.0
20260503194551 80 100 1.0 10.0 0.00 0.00 0.00 12 1005.1
20260503194050 80 95 5.0 9.0 0.00 0.00 0.00 12 1005.2
20260503193550 80 161 3.0 9.0 0.00 0.00 0.00 12 1005.4
20260503193054 81 92 4.0 11.0 0.00 0.00 0.00 12 1005.5
20260503192547 80 59 4.0 11.0 0.00 0.00 0.00 12 1005.6
20260503192047 80 96 5.0 10.0 0.00 0.00 0.00 12 1005.7
20260503191546 79 101 2.0 9.0 0.00 0.00 0.00 11 1005.8
20260503191048 80 55 3.0 9.0 0.00 0.00 0.00 11 1006.0
20260503190546 80 211 0.0 6.0 0.00 0.00 0.00 11 1006.1
20260503190043 80 198 4.0 9.0 0.00 0.00 0.00 12 1006.2
20260503185642 80 138 3.0 9.0 0.00 0.00 0.00 11 1006.3
20260503185041 80 61 3.0 9.0 0.00 0.00 0.00 11 1006.4
20260503184639 79 29 0.0 8.0 0.00 0.00 0.00 11 1006.5
20260503184041 79 47 3.0 8.0 0.00 0.00 0.00 11 1006.7
20260503183537 78 117 3.0 8.0 0.00 0.00 0.00 11 1006.7
20260503183054 78 49 3.0 8.0 0.00 0.00 0.00 11 1006.8
20260503182536 78 124 2.0 7.0 0.00 0.00 0.00 10 1006.9
20260503182036 78 104 2.0 8.0 0.00 0.00 0.00 11 1006.9
20260503181535 78 24 2.0 10.0 0.00 0.00 0.00 10 1007.0
20260503181034 78 74 3.0 10.0 0.00 0.00 0.00 10 1007.1
20260503180534 78 57 2.0 7.0 0.00 0.00 0.00 11 1007.1
20260503180040 77 132 2.0 8.0 0.00 0.00 0.00 10 1007.1
20260503175532 77 94 2.0 8.0 0.00 0.00 0.00 10 1007.1
20260503175034 77 96 4.0 8.0 0.00 0.00 0.00 10 1007.2
20260503174534 77 59 3.0 7.0 0.00 0.00 0.00 11 1007.2
20260503174032 77 31 3.0 8.0 0.00 0.00 0.00 11 1007.4
20260503173531 77 95 1.0 8.0 0.00 0.00 0.00 11 1007.5
20260503173051 77 88 2.0 6.0 0.00 0.00 0.00 11 1007.5
20260503172531 76 45 1.0 4.0 0.00 0.00 0.00 11 1007.5
20260503172031 76 44 1.0 4.0 0.00 0.00 0.00 10 1007.5
20260503171529 77 50 1.0 5.0 0.00 0.00 0.00 10 1007.5
20260503171029 76 54 1.0 6.0 0.00 0.00 0.00 10 1007.5
20260503170528 76 63 2.0 6.0 0.00 0.00 0.00 11 1007.4
20260503150518 73 126 1.0 3.0 0.00 0.00 0.00 9 1008.0
20260503131004 64 126 0.0 1.0 0.00 0.00 0.00 13 1007.6
20260503130504 64 126 0.0 1.0 0.00 0.00 0.00 13 1007.6
20260503120121 66 126 0.0 2.0 0.00 0.00 0.00 11 1007.1
20260503110551 67 126 0.0 2.0 0.00 0.00 0.00 11 1007.3
20260503081533 68 126 0.0 2.0 0.00 0.00 0.00 11 1008.2
20260503081032 68 126 1.0 2.0 0.00 0.00 0.00 11 1008.3
20260503080535 68 126 0.0 2.0 0.00 0.00 0.00 11 1008.3
20260503072528 68 126 0.0 2.0 0.00 0.00 0.00 11 1008.6
20260503072031 68 126 0.0 2.0 0.00 0.00 0.00 11 1008.5
20260503071527 68 126 0.0 2.0 0.00 0.00 0.00 11 1008.5
20260503071026 69 126 1.0 2.0 0.00 0.00 0.00 11 1008.6
20260503070525 69 126 0.0 2.0 0.00 0.00 0.00 11 1008.6
20260503055021 70 126 0.0 1.0 0.00 0.00 0.00 10 1008.5
20260503054526 70 126 0.0 1.0 0.00 0.00 0.00 10 1008.5
20260503054023 70 126 0.0 1.0 0.00 0.00 0.00 10 1008.5
20260503053520 70 126 0.0 1.0 0.00 0.00 0.00 10 1008.6
20260503053027 71 126 0.0 1.0 0.00 0.00 0.00 10 1008.5
20260503052523 70 126 0.0 1.0 0.00 0.00 0.00 10 1008.5
20260503052019 70 126 0.0 1.0 0.00 0.00 0.00 10 1008.5
20260503051522 70 126 0.0 1.0 0.00 0.00 0.00 10 1008.5
20260503051021 71 126 0.0 1.0 0.00 0.00 0.00 10 1008.5
20260503050519 71 126 0.0 1.0 0.00 0.00 0.00 10 1008.5
20260503050018 71 126 0.0 1.0 0.00 0.00 0.00 10 1008.4
20260503045519 71 126 0.0 1.0 0.00 0.00 0.00 10 1008.4
20260503045018 71 126 0.0 1.0 0.00 0.00 0.00 10 1008.5
20260503044517 71 126 0.0 2.0 0.00 0.00 0.00 10 1008.5
20260503044017 71 126 0.0 2.0 0.00 0.00 0.00 10 1008.5
20260503043517 71 126 0.0 2.0 0.00 0.00 0.00 10 1008.4
20260503043018 71 126 0.0 1.0 0.00 0.00 0.00 10 1008.5
20260503042517 71 126 0.0 1.0 0.00 0.00 0.00 10 1008.5
20260503042017 71 126 0.0 1.0 0.00 0.00 0.00 10 1008.3
20260503041517 71 126 0.0 1.0 0.00 0.00 0.00 10 1008.2
20260503041017 71 126 0.0 1.0 0.00 0.00 0.00 10 1008.2
20260503040517 71 126 0.0 1.0 0.00 0.00 0.00 10 1008.2
20260503040017 71 126 0.0 1.0 0.00 0.00 0.00 10 1008.1
20260503035516 72 126 0.0 1.0 0.00 0.00 0.00 10 1008.1
20260503035016 72 126 0.0 1.0 0.00 0.00 0.00 10 1008.0
20260503034533 72 126 0.0 0.0 0.00 0.00 0.00 10 1008.0
20260503034020 72 126 0.0 1.0 0.00 0.00 0.00 10 1007.9
20260503033515 72 126 0.0 1.0 0.00 0.00 0.00 10 1007.8
20260503033015 72 126 0.0 0.0 0.00 0.00 0.00 10 1007.7
20260503032515 73 126 0.0 0.0 0.00 0.00 0.00 10 1007.7
20260503032015 73 126 0.0 0.0 0.00 0.00 0.00 10 1007.6
20260503031516 73 126 0.0 1.0 0.00 0.00 0.00 10 1007.6
20260503031015 73 126 0.0 1.0 0.00 0.00 0.00 10 1007.5
20260503030515 74 126 0.0 1.0 0.00 0.00 0.00 9 1007.5
20260503030015 74 126 0.0 1.0 0.00 0.00 0.00 9 1007.5
20260503025515 75 126 0.0 0.0 0.00 0.00 0.00 8 1007.5
20260503025014 75 126 0.0 0.0 0.00 0.00 0.00 8 1007.4
20260503024514 75 126 0.0 0.0 0.00 0.00 0.00 8 1007.3
20260503024014 75 126 0.0 0.0 0.00 0.00 0.00 9 1007.3
20260503023517 75 126 0.0 0.0 0.00 0.00 0.00 8 1007.2
20260503023014 75 126 0.0 0.0 0.00 0.00 0.00 8 1007.1
20260503022514 75 126 0.0 0.0 0.00 0.00 0.00 8 1007.1
20260503022014 75 126 0.0 0.0 0.00 0.00 0.00 8 1007.2
20260503021514 76 126 0.0 0.0 0.00 0.00 0.00 9 1007.2
20260503021013 76 126 0.0 0.0 0.00 0.00 0.00 9 1007.2
20260503020513 76 126 0.0 0.0 0.00 0.00 0.00 9 1007.2
20260503020013 76 126 0.0 0.0 0.00 0.00 0.00 9 1007.3
20260503015512 77 126 0.0 0.0 0.00 0.00 0.00 8 1007.2
20260503015012 77 126 0.0 0.0 0.00 0.00 0.00 9 1007.3
20260503014516 77 126 0.0 1.0 0.00 0.00 0.00 8 1007.3
20260503014011 77 126 0.0 3.0 0.00 0.00 0.00 8 1007.3
20260503013511 77 126 1.0 3.0 0.00 0.00 0.00 8 1007.4
20260503013013 77 126 0.0 2.0 0.00 0.00 0.00 8 1007.4
20260503012511 78 126 0.0 2.0 0.00 0.00 0.00 9 1007.5
20260503012015 77 126 0.0 3.0 0.00 0.00 0.00 8 1007.5
20260503011510 78 126 0.0 3.0 0.00 0.00 0.00 8 1007.5
20260503011011 78 126 0.0 2.0 0.00 0.00 0.00 8 1007.5
20260503010509 78 126 0.0 4.0 0.00 0.00 0.00 8 1007.5
20260503010009 78 126 1.0 4.0 0.00 0.00 0.00 7 1007.6
20260503005514 79 127 0.0 2.0 0.00 0.00 0.00 8 1007.5
20260503005009 78 127 0.0 7.0 0.00 0.00 0.00 8 1007.7
20260503004506 78 124 2.0 7.0 0.00 0.00 0.00 7 1007.7
20260503004009 78 153 2.0 6.0 0.00 0.00 0.00 7 1007.8
20260503003605 78 160 1.0 5.0 0.00 0.00 0.00 7 1007.8
20260503003005 78 165 1.0 10.0 0.00 0.00 0.00 8 1007.8
20260503002505 78 155 5.0 10.0 0.00 0.00 0.00 7 1007.9
20260503002004 78 107 1.0 7.0 0.00 0.00 0.00 7 1007.9
20260503001504 78 130 1.0 5.0 0.00 0.00 0.00 7 1008.0
20260503001004 78 136 0.0 8.0 0.00 0.00 0.00 7 1008.0
20260503000506 78 166 3.0 8.0 0.00 0.00 0.00 7 1008.0
20260503000003 78 132 3.0 7.0 0.00 0.00 0.00 7 1008.0
20260502235504 79 94 2.0 10.0 0.00 0.00 0.00 7 1008.0
20260502235001 79 117 3.0 10.0 0.00 0.00 0.00 7 1008.1
20260502234502 78 123 3.0 9.0 0.00 0.00 0.00 8 1008.1
20260502234001 78 143 5.0 9.0 0.00 0.00 0.00 8 1008.1
20260502233601 78 160 3.0 8.0 0.00 0.00 0.00 8 1008.1
20260502233000 78 153 0.0 5.0 0.00 0.00 0.00 8 1008.1
20260502232600 79 153 2.0 5.0 0.00 0.00 0.00 8 1008.2